York, PA

9:55 PM EDT on April 21, 2018 (GMT -0400)
York

Weather History for KTHV - October, 2012

Change the Weather History Date:

Monday, October 1, 2012

  Actual Average Record
Temperature  
Mean Temperature 56 °F -  
Max Temperature 70 °F 0 °F 81 °F (2002)
Min Temperature 42 °F - 34 °F (1997)
Degree Days  
Heating Degree Days 10    
Growing Degree Days 6 (Base 50)    
Moisture  
Dew Point 46 °F    
Average Humidity 73    
Maximum Humidity 93    
Minimum Humidity 37    
Precipitation  
Precipitation 0.01 in - - ()
Sea Level Pressure  
Sea Level Pressure 29.94 in    
Wind  
Wind Speed 1 mph (SW)    
Max Wind Speed 7 mph    
Max Gust Speed -    
Visibility 9 miles    
Events Rain    
Averages and records for this station are not official NWS values.
T = Trace of Precipitation, MM = Missing Value Source: NWS Daily Summary

Daily Weather History Graph

Daily Weather History Graph

Search for Another Location

Airport or City:

Astronomy

Oct. 01, 2012 Rise Set
Actual Time 7:04 AM EDT 6:49 PM EDT
Civil Twilight 6:37 AM EDT 7:16 PM EDT
Nautical Twilight 6:05 AM EDT 7:47 PM EDT
Astronomical Twilight 5:34 AM EDT 8:18 PM EDT
Moon 7:25 PM EDT (10/1) 8:31 AM EDT (10/1)
Length of Visible Light 12h 38m
Length of Day
11h 44m
Full, 98% of the Moon is Illuminated
Oct 1
Full
Oct 8
Last Quarter
Oct 15
New
Oct 21
First Quarter
Oct 29
Full

Hourly Weather History & Observations

Time (EDT) Temp. Dew Point Humidity Pressure Visibility Wind Dir Wind Speed Gust Speed Precip Events Conditions
12:53 AM 46.0 °F 44.1 °F 93% 29.90 in 10.0 mi Calm Calm - N/A   Clear
1:53 AM 45.0 °F 43.0 °F 93% 29.91 in 10.0 mi Calm Calm - N/A   Clear
2:53 AM 44.1 °F 42.1 °F 93% 29.91 in 10.0 mi Calm Calm - N/A   Clear
3:56 AM 42.8 °F 41.0 °F 93% 29.90 in 1.0 mi Calm Calm - N/A   Clear
4:05 AM 42.8 °F 41.0 °F 93% 29.90 in 2.5 mi Calm Calm - N/A   Clear
4:12 AM 42.8 °F 41.0 °F 93% 29.90 in 9.0 mi Calm Calm - N/A   Clear
4:53 AM 43.0 °F 41.0 °F 93% 29.92 in 7.0 mi Calm Calm - N/A   Clear
6:53 AM 43.0 °F 41.0 °F 93% 29.93 in 8.0 mi Calm Calm - N/A   Clear
8:53 AM 52.0 °F 48.0 °F 86% 29.96 in 10.0 mi Calm Calm - N/A   Clear
9:53 AM 57.0 °F 48.9 °F 74% 29.97 in 10.0 mi WNW 6.9 mph - N/A   Clear
10:53 AM 62.1 °F 46.9 °F 58% 29.97 in 10.0 mi Calm Calm - N/A   Clear
11:53 AM 64.0 °F 45.0 °F 50% 29.97 in 10.0 mi WSW 3.5 mph - N/A   Clear
12:53 PM 66.9 °F 39.9 °F 37% 29.96 in 10.0 mi Calm Calm - N/A   Clear
1:53 PM 68.0 °F 42.1 °F 39% 29.94 in 10.0 mi WNW 4.6 mph - N/A   Clear
3:53 PM 69.1 °F 45.0 °F 42% 29.92 in 10.0 mi SSW 4.6 mph - N/A   Clear
4:53 PM 68.0 °F 46.0 °F 45% 29.92 in 10.0 mi SW 3.5 mph - N/A   Clear
5:53 PM 66.0 °F 48.9 °F 54% 29.93 in 10.0 mi SSW 3.5 mph - N/A   Mostly Cloudy
6:53 PM 63.0 °F 52.0 °F 67% 29.95 in 10.0 mi SSW 3.5 mph - N/A   Mostly Cloudy
7:53 PM 62.1 °F 53.1 °F 72% 29.96 in 10.0 mi SSW 3.5 mph - N/A   Overcast
8:53 PM 62.1 °F 53.1 °F 72% 29.96 in 10.0 mi Calm Calm - N/A   Overcast
9:53 PM 61.0 °F 54.0 °F 78% 29.96 in 10.0 mi Calm Calm - 0.01 in Rain Light Rain
11:53 PM 60.1 °F 55.0 °F 83% 29.96 in 10.0 mi Calm Calm - N/A   Overcast